Other Public Products
Issued by NWS Grand Forks, ND

Home | Current Version | Previous Version | Text Only | Print | Product List | Glossary On
Versions: 1 2 3 4 5 6 7 8 9 10 11 12 13 14 15 16 17 18 19 20 21 22 23 24 25 26 27 28 29 30 31 32 33 34 35 36 37 38 39 40 41 42 43 44 45 46 47 48 49 50
049
FPUS83 KFGF 130731
OPUFGF
PRAIRIE TO PINES WEATHER ROUNDUP
NATIONAL WEATHER SERVICE EASTERN NORTH DAKOTA/GRAND FORKS ND
100 AM CST SAT FEB 13 2016

 **SATELLITE DATA USED TO AUGMENT SKY COVER AT AUTOMATED STATIONS**
 *****  WEATHER ACROSS EASTERN NORTH DAKOTA  *****

CITY           SKY/WX    TMP DP  RH WIND       PRES   REMARKS
GRAND FORKS    CLOUDY    -8 -14  74 CALM      30.66F
GRAND FORKS AF CLOUDY   -10 -17  73 SW3       30.65F
GRAND CITY NWS NOT AVBL
BUXTON           N/A     -8 -12  85 CALM        N/A
DEVILS LAKE    CLOUDY   -14 -19  79 SE3       30.56F
FARGO          CLOUDY    -7 -15  68 CALM      30.66F
WAHPETON ARPT  CLOUDY    -8 -13  77 CALM      30.66F
$$

 *****  WEATHER ACROSS CENTRAL AND WESTERN NORTH DAKOTA  *****

CITY           SKY/WX    TMP DP  RH WIND       PRES   REMARKS
JAMESTOWN      CLOUDY    -5 -12  72 SE3       30.56F
BISMARCK       CLOUDY     6  -4  63 SE13      30.49F WCI -10
MINOT          CLOUDY     6  -3  66 SE10      30.44F WCI  -9
MINOT AFB      CLOUDY     5  -1  74 SE13      30.43F WCI -11
GARRISON         N/A      5  -2  72 SE13      30.41F WCI -12
WILLISTON      LGT SNOW  12   7  80 SE10      30.29F WCI  -1
DICKINSON      LGT SNOW  11   6  81 SE21      30.23F WCI  -8
HETTINGER      LGT SNOW  13   9  84 E15       30.26F FOG     WCI  -3
$$

 *****  OTHER OBSERVATIONS NORTHEAST NORTH DAKOTA  *****

CITY           SKY/WX    TMP DP  RH WIND       PRES   REMARKS
WALHALLA       FAIR     -11 -18  70 SW6       30.63F WCI -25
LANGDON        FAIR     -22 -27  76 S5        30.54F WCI -36
CAVALIER       FAIR      -9 -15  77 SW3       30.64F
GRAFTON        FAIR      -9 -15  77 S6        30.67F WCI -23
CANDO          FAIR     -17 -20  83 S7        30.56F WCI -33
FORT TOTTEN      N/A    -10 -16  75 S5        29.95S WCI -22
ROLLA          FAIR      -9 -15  77 SW10      30.48F WCI -28
RUGBY          FAIR      -2  -9  71 SE9       30.50F WCI -18
 ***** THE ABOVE OBSERVATIONS ARE NON NWS ARE NOT QUALITY
        CONTROLLED AND MAY MIS-REPORT RAIN FOR SNOW...
$$

 *****  OTHER OBSERVATIONS SOUTHEAST NORTH DAKOTA *****

CITY           SKY/WX    TMP DP  RH WIND       PRES   REMARKS
COOPERSTOWN    NOT AVBL
VALLEY CITY    FAIR     -13 -18  77 CALM      30.60F
OAKES          FAIR      -4  -9  77 CALM      30.60F
GWINNER        FAIR      -6 -13  71 CALM      30.62S
SHEYENNE NWR     N/A    -17 -25  68 CALM      29.95S
BUFFALO          N/A    -14 -20  74 N3          N/A
WYNDMERE         N/A     -9 -15  77 W3          N/A
 ***** THE ABOVE OBSERVATIONS ARE NON NWS ARE NOT QUALITY
       CONTROLLED AND MAY MIS-REPORT RAIN FOR SNOW...
$$

  *****  WEATHER ACROSS NORTHERN MINNESOTA  *****

CITY           SKY/WX    TMP DP  RH WIND       PRES   REMARKS
FLAG ISLAND    CLOUDY   -17 -22  76 W5        30.58S WCI -29
WARROAD        CLOUDY   -18 -24  76 CALM      30.59F
ROSEAU         CLOUDY   -18 -24  76 CALM      30.60F
HALLOCK        CLOUDY   -15 -20  76 S3        30.64F
THF RVR FALLS  CLOUDY   -15 -20  76 W5        30.63S WCI -27
HALSTAD          N/A     -7 -11  83 CALM        N/A
FOSSTON          N/A    -24 -31  69 CALM      30.61S
BAUDETTE       CLOUDY   -18 -24  74 NW8       30.57S WCI -36
WASKISH        CLOUDY   -17 -22  76 SW6       30.58F WCI -31
CROOKSTON      CLOUDY    -9 -15  77 CALM      30.67F
$$
  *****  WEATHER ACROSS CENTRAL AND WEST MINNESOTA  *****

CITY           SKY/WX    TMP DP  RH WIND       PRES   REMARKS
BEMIDJI        CLOUDY   -17 -21  79 CALM      30.57S
PARK RAPIDS    CLOUDY   -17 -23  73 CALM      30.57R
WADENA         CLOUDY   -15 -18  84 CALM      30.59S
DETROIT LAKES  CLOUDY    -9 -15  77 CALM      30.60S
MOORHEAD       CLOUDY    -8 -13  77 N3        30.66F
FERGUS FALLS   CLOUDY    -9 -15  77 CALM      30.67F
ELBOW LAKE     FAIR      -8 -12  82 N3        30.63S
MORRIS MN      CLOUDY    -8 -13  77 W5        30.64R WCI -19
STAPLES        CLOUDY   -17 -20  83 NW5       30.60S WCI -29
WHEATON        CLOUDY    -8 -13  77 CALM      30.67F
$$
  *****  WEATHER ELSEWHERE ACROSS MINNESOTA  *****

CITY           SKY/WX    TMP DP  RH WIND       PRES   REMARKS
DULUTH         CLOUDY   -11 -20  64 NW9       30.51R WCI -29
INTRNTL FALLS  CLOUDY   -16 -22  74 W8        30.55R WCI -34
ELY            CLOUDY   -17 -20  83 W6        30.48S WCI -31
CLOQUET        CLOUDY   -11 -20  64 NW7       30.55R WCI -26
BRAINERD       CLOUDY   -10 -17  71 NW6       30.60R WCI -23
HIBBING        CLOUDY   -15 -22  70 NW12      30.52S WCI -36
ALEXANDRIA     CLOUDY   -10 -16  74 N6        30.59F WCI -23
SAINT CLOUD    CLOUDY    -7 -15  68 NW9       30.62R WCI -24
MINNEAPOLIS    CLOUDY    -2 -12  62 NW10      30.63R WCI -19
$$

  *****  WEATHER ACROSS SOUTH DAKOTA  *****

CITY           SKY/WX    TMP DP  RH WIND       PRES   REMARKS
SIOUX FALLS    CLOUDY    -3  -9  75 N6        30.61F WCI -15
BROOKINGS      CLOUDY    -8 -13  78 W3        30.58R
WATERTOWN      CLOUDY    -7 -14  71 SW3       30.57R
HURON          CLEAR      3  -4  72 SE6       30.61F WCI  -8
SISSETON         N/A    -10 -15  78 CALM      30.63F
ABERDEEN       CLEAR      0  -8  69 E5        30.61F WCI -10
MITCHELL       CLEAR      5  -4  66 E6        30.63F WCI  -6
PIERRE         CLOUDY    12   6  77 SE18      30.45F WCI  -6
MOBRIDGE       CLOUDY     8   2  76 SE15      30.45F WCI  -9
RAPID CITY     CLOUDY    26  23  88 SE14      30.18F WCI  14
$$

  *****  SOME WEATHER IN NEARBY STATES *****

CITY           SKY/WX    TMP DP  RH WIND       PRES   REMARKS
GLASGOW MT     CLOUDY    18  13  80 E24       30.08F WCI   0
GREAT FALLS MT PTCLDY    39  31  72 S12       29.95F
CHEYENNE WY    MOCLDY    31  29  92 S9        30.15F WCI  23
SCOTTSBLUFF NE CLOUDY    33  30  88 SE10      30.22F WCI  25
OMAHA NE       CLOUDY    12   0  58 N10       30.65F WCI  -1
DES MOINES IA  CLOUDY     4  -4  69 NW6       30.64S WCI  -7
DAVENPORT IA   CLEAR      6  -5  60 NW12      30.58R WCI  -9
CHICAGO IL     CLEAR      5 -11  47 N13G24    30.48R WCI -12
EAU CLAIRE WI  CLOUDY    -2 -17  49 NW8       30.56R WCI -17
LA CROSSE WI   PTCLDY    -2 -14  56 N8        30.58S WCI -17
$$

  *****  SOME NATIONAL WEATHER *****

CITY           SKY/WX    TMP DP  RH WIND       PRES   REMARKS
LA GUARDIA NY  CLOUDY    23  11  60 W13       29.90F WCI  11
RALEIGH NC     MOCLDY    30  22  72 CALM      30.04R
ATLANTA GA     PTCLDY    37  26  64 NW14      30.19S
NEW ORLEANS LA PTCLDY    56  43  61 NE6       30.30R
OKLAHOMA CITY  PTCLDY    39  27  62 NE14      30.44F
ALBUQUERQUE NM CLEAR     46  20  35 NE7       30.32F
SALT LAKE CITY CLOUDY    29  28  96 SW5       30.32S FOG     WCI  24
LOS ANGELES CA CLEAR     60  55  83 SW3       30.09R
BOISE ID       CLOUDY    39  31  72 SW8       30.18S
SEATTLE WA     MOCLDY    48  43  81 S8        30.19S
$$

*** WEATHER ACROSS MANITOBA...SASKATCHEWAN AND ONTARIO ***
                ***ONTARIO***

CITY           SKY/WX    TMP DP  RH WIND       PRES   REMARKS
GERALDTON      CRYSTALS -20 -26  76 W5        30.31R WCI -33
THUNDER BAY    CLEAR     -9 -18  64 NW7       30.49R WCI -24
SIOUX LOOKOUT  CLEAR    -15 -22  70 NW7       30.44S WCI -31
TORONTO        PTCLDY     0  -9  65 N20       30.08R WCI -22
BIG TROUT LK   MOCLDY   -20 -26  76 W9        30.37R WCI -40
PICKLE LAKE    NOT AVBL
DRYDEN         CLEAR    -18 -24  76 W8        30.47R WCI -37
KENORA         CLEAR    -15 -22  70 NW12      30.51F WCI -36
$$
                *** MANITOBA***

CITY           SKY/WX    TMP DP  RH WIND       PRES   REMARKS
BRANDON        PTCLDY   -22 -27  76 NE7       30.53F WCI -39
DAUPHIN        CLEAR    -22 -29  69 VRB2      30.54F
ISLAND LAKE    NOT AVBL
PILOT MOUND      N/A    -22 -27  76 S5          N/A  WCI -36
THE PAS        CLEAR    -18 -27  63 SE7       30.48F WCI -35
THOMPSON       PTCLDY   -24 -31  69 CALM      30.48F
WINNIPEG       CLEAR    -13 -20  70 S2G17     30.64S
LYNN LAKE      PTCLDY   -24 -29  76 S5        30.35F WCI -38
CHURCHILL      PTCLDY   -20 -26  76 W9        30.40F WCI -40
$$
                ***SASKATCHEWAN***

CITY           SKY/WX    TMP DP  RH WIND       PRES   REMARKS
ESTEVAN        NOT AVBL
KINDERSLEY     FLURRIES  18  14  86 SE22G28   29.92F WCI   0
LLOYDMINSTER   FLURRIES   9   5  85 SE15      29.94F WCI  -8
PRINCE ALBERT  CLOUDY    -9 -17  70 E10       30.24F WCI -28
REGINA         CLOUDY     9   0  66 SE22G31   30.23F WCI -11
YORKTON        MOCLDY    -8 -15  71 S10       30.38F WCI -26
N. BATTLEFORD  LGT SNOW   7   3  85 SE21G26   30.05F WCC1F1C2F2C3F3C4F4C5F5C6F6C7F7C8F8C9F9CaFaCbFbCcFcCdFdCe!



USA.gov is the U.S. government's official web portal to all federal, state and local government web resources and services.